QPF
0.03 0.04 0.02 0.01 0.01 0.01 0.01 0.03 0.08 0.10 0.14 0.16 0.15 0.11 0.12 0.17 0.15 0.12 0.11 0.11 0.11 0.10 0.09 0.08 0.09 0.10 0.11 0.10 0.09 0.08 0.06 0.06 0.05 0.05 0.04 0.02 0.02 0.02 0.02 0.01 0.01 0.00 0.00
0.03 0.04 0.03 0.02 0.01 0.01 0.02 0.04 0.09 0.10 0.13 0.18 0.18 0.11 0.09 0.12 0.13 0.10 0.10 0.11 0.11 0.09 0.08 0.08 0.08 0.09 0.09 0.09 0.10 0.12 0.10 0.08 0.07 0.07 0.06 0.05 0.03 0.01 0.02 0.02 0.02 0.01 0.01
0.03 0.03 0.03 0.02 0.02 0.02 0.02 0.05 0.09 0.10 0.12 0.16 0.17 0.13 0.12 0.11 0.12 0.10 0.09 0.09 0.10 0.10 0.08 0.08 0.09 0.09 0.08 0.08 0.08 0.10 0.11 0.10 0.08 0.07 0.07 0.06 0.03 0.01 0.01 0.01 0.01 0.01 0.01
0.04 0.05 0.04 0.04 0.04 0.03 0.04 0.06 0.10 0.11 0.12 0.15 0.15 0.14 0.12 0.11 0.10 0.08 0.07 0.06 0.06 0.09 0.08 0.08 0.08 0.09 0.10 0.09 0.08 0.08 0.08 0.09 0.08 0.06 0.05 0.05 0.04 0.03 0.02 0.01 0.01 0.01 0.00
0.06 0.05 0.05 0.06 0.05 0.05 0.06 0.07 0.10 0.12 0.14 0.14 0.13 0.13 0.12 0.12 0.10 0.07 0.06 0.05 0.06 0.07 0.08 0.09 0.08 0.08 0.08 0.07 0.08 0.09 0.10 0.09 0.08 0.07 0.06 0.05 0.04 0.04 0.03 0.02 0.01 0.01 0.01
0.05 0.04 0.05 0.07 0.06 0.07 0.08 0.08 0.10 0.12 0.13 0.13 0.13 0.12 0.12 0.12 0.10 0.07 0.07 0.07 0.07 0.08 0.08 0.10 0.09 0.08 0.08 0.06 0.05 0.07 0.09 0.10 0.10 0.09 0.08 0.07 0.05 0.04 0.04 0.03 0.02 0.02 0.01
0.05 0.05 0.05 0.06 0.08 0.10 0.09 0.07 0.08 0.11 0.12 0.12 0.12 0.10 0.10 0.10 0.10 0.10 0.08 0.09 0.09 0.09 0.07 0.06 0.06 0.06 0.07 0.07 0.06 0.06 0.08 0.08 0.08 0.08 0.08 0.07 0.06 0.05 0.05 0.04 0.03 0.02 0.01
0.07 0.07 0.08 0.09 0.09 0.10 0.09 0.08 0.08 0.10 0.10 0.11 0.11 0.11 0.10 0.10 0.10 0.10 0.10 0.10 0.10 0.10 0.07 0.05 0.04 0.04 0.05 0.06 0.06 0.05 0.05 0.06 0.07 0.06 0.06 0.06 0.06 0.05 0.05 0.05 0.05 0.04 0.03
0.07 0.06 0.06 0.06 0.06 0.07 0.08 0.09 0.09 0.08 0.09 0.10 0.11 0.14 0.11 0.09 0.09 0.11 0.11 0.11 0.10 0.08 0.07 0.05 0.03 0.03 0.03 0.04 0.05 0.06 0.05 0.05 0.06 0.06 0.06 0.06 0.05 0.05 0.06 0.06 0.06 0.07 0.06
0.05 0.05 0.06 0.06 0.06 0.06 0.06 0.07 0.08 0.09 0.10 0.09 0.09 0.12 0.11 0.09 0.08 0.09 0.09 0.07 0.07 0.06 0.05 0.04 0.03 0.02 0.02 0.03 0.04 0.04 0.05 0.06 0.07 0.08 0.09 0.08 0.07 0.07 0.07 0.07 0.07 0.07 0.07
0.05 0.04 0.04 0.04 0.04 0.05 0.05 0.05 0.05 0.06 0.06 0.06 0.05 0.07 0.06 0.06 0.06 0.06 0.08 0.05 0.04 0.04 0.04 0.04 0.03 0.02 0.02 0.02 0.03 0.03 0.04 0.04 0.05 0.05 0.06 0.06 0.06 0.07 0.07 0.07 0.07 0.07 0.07
0.06 0.04 0.03 0.02 0.03 0.03 0.03 0.03 0.03 0.03 0.03 0.03 0.03 0.03 0.04 0.03 0.03 0.04 0.05 0.05 0.04 0.03 0.04 0.03 0.03 0.03 0.03 0.03 0.03 0.03 0.03 0.04 0.04 0.05 0.05 0.06 0.06 0.06 0.06 0.07 0.08 0.08 0.08
0.04 0.04 0.03 0.02 0.02 0.02 0.02 0.02 0.03 0.03 0.03 0.03 0.02 0.02 0.04 0.04 0.03 0.03 0.03 0.03 0.03 0.03 0.04 0.03 0.02 0.01 0.01 0.02 0.02 0.02 0.04 0.05 0.05 0.06 0.06 0.06 0.08 0.08 0.07 0.08 0.08 0.09 0.08
0.02 0.03 0.04 0.03 0.02 0.02 0.03 0.02 0.03 0.03 0.03 0.03 0.03 0.03 0.03 0.04 0.03 0.02 0.02 0.02 0.02 0.01 0.02 0.03 0.04 0.03 0.02 0.02 0.02 0.02 0.03 0.05 0.06 0.06 0.06 0.06 0.08 0.09 0.09 0.09 0.09 0.08 0.09
0.02 0.02 0.02 0.03 0.03 0.03 0.03 0.03 0.02 0.03 0.04 0.03 0.03 0.03 0.04 0.03 0.03 0.02 0.02 0.01 0.01 0.01 0.02 0.03 0.04 0.04 0.04 0.03 0.03 0.03 0.03 0.04 0.05 0.06 0.06 0.07 0.07 0.07 0.09 0.10 0.11 0.11 0.11
0.02 0.02 0.02 0.03 0.03 0.04 0.04 0.03 0.03 0.03 0.03 0.03 0.02 0.02 0.03 0.03 0.03 0.02 0.02 0.01 0.01 0.01 0.01 0.02 0.02 0.03 0.03 0.04 0.05 0.04 0.04 0.04 0.04 0.05 0.05 0.06 0.07 0.08 0.09 0.10 0.11 0.13 0.14
0.01 0.02 0.02 0.02 0.03 0.03 0.03 0.03 0.02 0.02 0.02 0.02 0.02 0.01 0.02 0.03 0.03 0.03 0.02 0.02 0.02 0.02 0.02 0.01 0.01 0.01 0.03 0.04 0.04 0.04 0.05 0.05 0.06 0.06 0.07 0.08 0.09 0.09 0.09 0.10 0.10 0.11 0.12
0.01 0.01 0.01 0.01 0.01 0.02 0.02 0.02 0.02 0.01 0.01 0.01 0.01 0.01 0.01 0.01 0.02 0.02 0.02 0.02 0.02 0.02 0.02 0.02 0.02 0.01 0.02 0.03 0.03 0.04 0.04 0.05 0.05 0.05 0.05 0.06 0.07 0.08 0.07 0.08 0.09 0.09 0.10
0.01 0.01 0.00 0.00 0.01 0.01 0.01 0.01 0.01 0.01 0.01 0.01 0.01 0.00 0.00 0.01 0.01 0.01 0.01 0.02 0.02 0.02 0.03 0.03 0.03 0.02 0.03 0.03 0.03 0.03 0.03 0.03 0.03 0.04 0.05 0.06 0.06 0.07 0.08 0.07 0.07 0.07 0.08
0.00 0.00 0.00 0.00 0.00 0.00 0.00 0.01 0.01 0.01 0.01 0.00 0.01 0.01 0.01 0.00 0.00 0.01 0.01 0.01 0.02 0.02 0.02 0.02 0.02 0.02 0.03 0.04 0.04 0.03 0.02 0.01 0.02 0.03 0.03 0.05 0.05 0.06 0.06 0.06 0.06 0.07 0.06
0.00 0.00 0.00 0.00 0.00 0.00 0.00 0.01 0.01 0.02 0.01 0.00 0.01 0.01 0.01 0.01 0.01 0.01 0.01 0.01 0.01 0.02 0.02 0.02 0.02 0.02 0.02 0.03 0.03 0.02 0.02 0.02 0.02 0.02 0.03 0.03 0.05 0.05 0.06 0.07 0.06 0.06 0.05
0.00 0.00 0.01 0.01 0.01 0.01 0.01 0.01 0.01 0.01 0.01 0.00 0.00 0.01 0.01 0.01 0.01 0.01 0.01 0.01 0.01 0.01 0.01 0.01 0.02 0.02 0.03 0.03 0.02 0.02 0.02 0.02 0.02 0.03 0.03 0.03 0.03 0.04 0.05 0.05 0.06 0.06 0.06
0.00 0.00 0.01 0.01 0.02 0.02 0.01 0.01 0.01 0.01 0.00 0.00 0.00 0.01 0.01 0.01 0.00 0.01 0.01 0.01 0.01 0.01 0.02 0.02 0.03 0.02 0.02 0.03 0.04 0.03 0.03 0.03 0.03 0.02 0.03 0.03 0.03 0.03 0.04 0.04 0.05 0.06 0.08
0.00 0.00 0.00 0.01 0.02 0.02 0.02 0.01 0.01 0.01 0.01 0.00 0.00 0.00 0.00 0.00 0.00 0.00 0.00 0.01 0.01 0.02 0.02 0.02 0.04 0.04 0.03 0.03 0.05 0.06 0.06 0.06 0.05 0.04 0.04 0.04 0.04 0.04 0.05 0.05 0.05 0.05 0.07
0.00 0.00 0.00 0.00 0.00 0.00 0.00 0.01 0.01 0.01 0.01 0.01 0.00 0.00 0.00 0.00 0.00 0.00 0.01 0.01 0.01 0.02 0.02 0.03 0.03 0.04 0.05 0.04 0.04 0.05 0.06 0.07 0.07 0.06 0.06 0.06 0.06 0.06 0.05 0.04 0.04 0.04 0.05
0.00 0.00 0.00 0.00 0.00 0.00 0.00 0.00 0.00 0.00 0.00 0.00 0.00 0.00 0.00 0.00 0.00 0.00 0.01 0.01 0.01 0.01 0.01 0.02 0.02 0.02 0.03 0.03 0.03 0.03 0.04 0.05 0.06 0.06 0.06 0.05 0.05 0.05 0.04 0.04 0.04 0.04 0.05
MSLP
1017.49 1017.56 1017.57 1017.50 1017.34 1017.08 1016.74 1016.34 1015.90 1015.46 1015.02 1014.63 1014.28 1013.98 1013.72 1013.51 1013.34 1013.19 1013.05 1012.94 1012.84 1012.75 1012.70 1012.68 1012.72 1012.80 1012.94 1013.13 1013.36 1013.63 1013.91 1014.20 1014.46 1014.69 1014.88 1015.02 1015.13 1015.20 1015.26 1015.30 1015.36 1015.43 1015.54
1017.42 1017.52 1017.56 1017.52 1017.41 1017.21 1016.95 1016.65 1016.31 1015.96 1015.61 1015.27 1014.94 1014.62 1014.31 1014.01 1013.73 1013.46 1013.22 1013.01 1012.84 1012.71 1012.64 1012.60 1012.62 1012.69 1012.79 1012.94 1013.13 1013.34 1013.58 1013.83 1014.08 1014.31 1014.52 1014.70 1014.84 1014.93 1014.99 1015.02 1015.03 1015.05 1015.09
1017.21 1017.33 1017.41 1017.42 1017.35 1017.22 1017.04 1016.83 1016.59 1016.34 1016.09 1015.81 1015.52 1015.20 1014.86 1014.50 1014.13 1013.77 1013.43 1013.15 1012.92 1012.75 1012.64 1012.59 1012.59 1012.62 1012.69 1012.78 1012.91 1013.06 1013.24 1013.44 1013.67 1013.90 1014.13 1014.33 1014.49 1014.60 1014.67 1014.68 1014.67 1014.65 1014.63
1016.87 1017.05 1017.17 1017.23 1017.21 1017.14 1017.03 1016.89 1016.74 1016.58 1016.41 1016.20 1015.96 1015.66 1015.32 1014.93 1014.51 1014.09 1013.70 1013.36 1013.08 1012.87 1012.73 1012.66 1012.62 1012.62 1012.64 1012.68 1012.73 1012.81 1012.92 1013.07 1013.26 1013.46 1013.68 1013.88 1014.06 1014.18 1014.24 1014.25 1014.22 1014.16 1014.11
1016.46 1016.71 1016.90 1017.01 1017.05 1017.03 1016.97 1016.88 1016.79 1016.69 1016.58 1016.43 1016.24 1015.98 1015.66 1015.27 1014.85 1014.42 1014.00 1013.63 1013.33 1013.09 1012.93 1012.82 1012.75 1012.71 1012.67 1012.64 1012.63 1012.63 1012.66 1012.74 1012.86 1013.02 1013.20 1013.37 1013.53 1013.63 1013.68 1013.68 1013.63 1013.55 1013.48
1016.03 1016.37 1016.64 1016.82 1016.91 1016.93 1016.90 1016.84 1016.78 1016.71 1016.62 1016.52 1016.37 1016.15 1015.87 1015.53 1015.13 1014.72 1014.32 1013.95 1013.64 1013.40 1013.21 1013.08 1012.97 1012.88 1012.79 1012.69 1012.60 1012.52 1012.47 1012.47 1012.51 1012.59 1012.70 1012.81 1012.91 1012.97 1012.98 1012.95 1012.87 1012.78 1012.71
1015.63 1016.07 1016.42 1016.68 1016.82 1016.87 1016.86 1016.80 1016.73 1016.66 1016.58 1016.49 1016.37 1016.20 1015.98 1015.69 1015.35 1014.99 1014.63 1014.30 1014.00 1013.76 1013.56 1013.40 1013.26 1013.11 1012.97 1012.81 1012.64 1012.49 1012.36 1012.27 1012.21 1012.20 1012.21 1012.23 1012.24 1012.22 1012.17 1012.08 1011.97 1011.86 1011.79
1015.27 1015.80 1016.24 1016.57 1016.77 1016.85 1016.83 1016.76 1016.67 1016.57 1016.48 1016.39 1016.29 1016.16 1015.99 1015.77 1015.51 1015.22 1014.92 1014.63 1014.37 1014.13 1013.92 1013.74 1013.56 1013.37 1013.17 1012.96 1012.74 1012.52 1012.31 1012.13 1011.98 1011.86 1011.76 1011.66 1011.55 1011.43 1011.28 1011.12 1010.96 1010.83 1010.74
1014.95 1015.56 1016.08 1016.47 1016.72 1016.82 1016.81 1016.73 1016.61 1016.48 1016.36 1016.26 1016.16 1016.06 1015.94 1015.79 1015.60 1015.39 1015.16 1014.92 1014.68 1014.46 1014.24 1014.03 1013.82 1013.60 1013.36 1013.10 1012.83 1012.56 1012.29 1012.03 1011.80 1011.57 1011.36 1011.14 1010.91 1010.66 1010.40 1010.15 1009.92 1009.74 1009.63
1014.66 1015.31 1015.88 1016.33 1016.62 1016.76 1016.76 1016.67 1016.53 1016.37 1016.23 1016.11 1016.01 1015.93 1015.85 1015.76 1015.64 1015.49 1015.32 1015.12 1014.91 1014.70 1014.47 1014.24 1014.00 1013.74 1013.47 1013.18 1012.88 1012.57 1012.26 1011.95 1011.64 1011.33 1011.02 1010.68 1010.33 1009.96 1009.59 1009.23 1008.91 1008.66 1008.52
1014.36 1015.02 1015.62 1016.11 1016.44 1016.61 1016.64 1016.57 1016.42 1016.26 1016.10 1015.97 1015.87 1015.80 1015.75 1015.69 1015.62 1015.51 1015.38 1015.22 1015.02 1014.81 1014.57 1014.32 1014.04 1013.76 1013.46 1013.14 1012.83 1012.50 1012.17 1011.83 1011.48 1011.11 1010.72 1010.30 1009.84 1009.36 1008.88 1008.41 1008.00 1007.67 1007.45
1014.02 1014.66 1015.27 1015.78 1016.15 1016.37 1016.44 1016.40 1016.28 1016.13 1015.98 1015.85 1015.76 1015.69 1015.65 1015.61 1015.55 1015.47 1015.36 1015.20 1015.01 1014.78 1014.52 1014.24 1013.94 1013.63 1013.31 1012.98 1012.65 1012.32 1011.98 1011.63 1011.26 1010.86 1010.42 1009.94 1009.42 1008.86 1008.28 1007.72 1007.21 1006.78 1006.48
1013.64 1014.25 1014.84 1015.36 1015.77 1016.03 1016.17 1016.19 1016.12 1016.01 1015.88 1015.77 1015.68 1015.61 1015.56 1015.52 1015.46 1015.37 1015.25 1015.09 1014.88 1014.63 1014.35 1014.04 1013.71 1013.36 1013.02 1012.67 1012.34 1012.00 1011.66 1011.31 1010.94 1010.53 1010.08 1009.57 1009.01 1008.40 1007.76 1007.12 1006.52 1006.00 1005.59
1013.25 1013.80 1014.37 1014.89 1015.32 1015.64 1015.84 1015.94 1015.94 1015.89 1015.81 1015.72 1015.64 1015.56 1015.50 1015.43 1015.34 1015.23 1015.08 1014.89 1014.66 1014.38 1014.07 1013.73 1013.37 1013.00 1012.63 1012.26 1011.90 1011.55 1011.20 1010.85 1010.48 1010.08 1009.63 1009.11 1008.54 1007.91 1007.24 1006.55 1005.88 1005.28 1004.77
1012.87 1013.37 1013.90 1014.41 1014.86 1015.23 1015.50 1015.67 1015.76 1015.78 1015.76 1015.70 1015.63 1015.54 1015.44 1015.34 1015.21 1015.05 1014.87 1014.64 1014.38 1014.07 1013.74 1013.37 1012.98 1012.57 1012.17 1011.77 1011.37 1010.99 1010.62 1010.25 1009.87 1009.47 1009.02 1008.52 1007.96 1007.33 1006.65 1005.94 1005.23 1004.56 1003.96
1012.54 1012.99 1013.47 1013.96 1014.42 1014.83 1015.16 1015.41 1015.58 1015.67 1015.70 1015.68 1015.62 1015.52 1015.39 1015.24 1015.06 1014.85 1014.62 1014.36 1014.06 1013.73 1013.38 1012.99 1012.57 1012.13 1011.69 1011.24 1010.79 1010.36 1009.94 1009.53 1009.12 1008.69 1008.24 1007.75 1007.20 1006.59 1005.93 1005.22 1004.49 1003.78 1003.11
1012.29 1012.68 1013.12 1013.57 1014.03 1014.45 1014.83 1015.14 1015.38 1015.55 1015.63 1015.64 1015.58 1015.47 1015.31 1015.11 1014.88 1014.62 1014.35 1014.05 1013.73 1013.39 1013.02 1012.62 1012.18 1011.71 1011.22 1010.72 1010.21 1009.70 1009.20 1008.72 1008.25 1007.78 1007.31 1006.80 1006.27 1005.68 1005.03 1004.34 1003.61 1002.88 1002.18
1012.13 1012.46 1012.83 1013.23 1013.66 1014.08 1014.49 1014.85 1015.14 1015.36 1015.49 1015.53 1015.49 1015.36 1015.17 1014.93 1014.66 1014.36 1014.05 1013.73 1013.40 1013.06 1012.68 1012.28 1011.83 1011.33 1010.80 1010.23 1009.64 1009.04 1008.45 1007.87 1007.31 1006.78 1006.25 1005.72 1005.17 1004.59 1003.96 1003.29 1002.58 1001.85 1001.14
1012.03 1012.28 1012.57 1012.91 1013.29 1013.70 1014.10 1014.49 1014.82 1015.08 1015.26 1015.32 1015.29 1015.16 1014.96 1014.69 1014.39 1014.06 1013.73 1013.40 1013.07 1012.73 1012.36 1011.96 1011.50 1010.99 1010.41 1009.78 1009.11 1008.42 1007.72 1007.03 1006.37 1005.74 1005.14 1004.55 1003.97 1003.37 1002.75 1002.09 1001.39 1000.68 999.97
1011.93 1012.09 1012.30 1012.56 1012.88 1013.25 1013.65 1014.04 1014.40 1014.70 1014.91 1015.00 1014.99 1014.87 1014.66 1014.39 1014.07 1013.73 1013.40 1013.06 1012.74 1012.40 1012.04 1011.65 1011.19 1010.65 1010.04 1009.36 1008.61 1007.83 1007.03 1006.23 1005.46 1004.73 1004.04 1003.38 1002.74 1002.11 1001.46 1000.79 1000.10 999.39 998.69
1011.77 1011.85 1011.97 1012.15 1012.40 1012.73 1013.10 1013.50 1013.88 1014.21 1014.45 1014.58 1014.59 1014.50 1014.30 1014.04 1013.72 1013.39 1013.05 1012.72 1012.40 1012.07 1011.72 1011.32 1010.85 1010.30 1009.66 1008.93 1008.13 1007.27 1006.38 1005.49 1004.62 1003.79 1003.00 1002.26 1001.54 1000.85 1000.16 999.46 998.75 998.03 997.33
1011.52 1011.51 1011.54 1011.65 1011.85 1012.13 1012.49 1012.88 1013.28 1013.64 1013.91 1014.08 1014.14 1014.08 1013.91 1013.66 1013.36 1013.04 1012.71 1012.38 1012.05 1011.72 1011.36 1010.96 1010.47 1009.91 1009.24 1008.47 1007.63 1006.71 1005.76 1004.80 1003.85 1002.93 1002.06 1001.23 1000.43 999.66 998.91 998.15 997.40 996.65 995.93
1011.13 1011.04 1011.01 1011.07 1011.23 1011.49 1011.84 1012.24 1012.65 1013.04 1013.35 1013.57 1013.67 1013.65 1013.52 1013.31 1013.03 1012.72 1012.39 1012.06 1011.72 1011.37 1010.99 1010.55 1010.05 1009.45 1008.75 1007.96 1007.08 1006.14 1005.14 1004.13 1003.13 1002.15 1001.21 1000.30 999.43 998.58 997.74 996.91 996.10 995.30 994.54
1010.60 1010.48 1010.41 1010.44 1010.59 1010.84 1011.20 1011.61 1012.05 1012.47 1012.82 1013.08 1013.23 1013.26 1013.17 1013.00 1012.74 1012.45 1012.12 1011.77 1011.41 1011.02 1010.60 1010.12 1009.57 1008.93 1008.20 1007.38 1006.48 1005.52 1004.51 1003.48 1002.45 1001.43 1000.44 999.47 998.53 997.60 996.69 995.78 994.89 994.03 993.23
1009.97 1009.83 1009.77 1009.81 1009.97 1010.24 1010.62 1011.05 1011.52 1011.97 1012.36 1012.66 1012.85 1012.92 1012.89 1012.74 1012.52 1012.23 1011.90 1011.53 1011.13 1010.70 1010.22 1009.68 1009.07 1008.38 1007.61 1006.76 1005.84 1004.86 1003.85 1002.82 1001.79 1000.76 999.74 998.74 997.75 996.76 995.77 994.79 993.83 992.91 992.05
1009.25 1009.15 1009.12 1009.21 1009.41 1009.72 1010.13 1010.60 1011.09 1011.56 1011.98 1012.32 1012.54 1012.66 1012.65 1012.54 1012.34 1012.06 1011.73 1011.34 1010.90 1010.41 1009.87 1009.26 1008.59 1007.84 1007.02 1006.13 1005.19 1004.21 1003.20 1002.18 1001.15 1000.13 999.11 998.09 997.08 996.05 995.02 993.99 992.97 992.00 991.09
Thickness
5596 5599 5601 5604 5607 5610 5614 5617 5620 5624 5628 5632 5635 5638 5641 5644 5646 5648 5650 5652 5653 5654 5656 5657 5656 5656 5655 5655 5655 5653 5651 5650 5650 5648 5647 5649 5651 5651 5650 5649 5647 5646 5644
5588 5591 5593 5595 5596 5600 5603 5606 5610 5613 5618 5622 5625 5629 5631 5633 5635 5638 5640 5642 5643 5645 5646 5647 5648 5648 5647 5647 5646 5645 5643 5642 5642 5639 5636 5636 5639 5642 5644 5642 5640 5638 5636
5580 5582 5584 5585 5587 5590 5593 5597 5601 5605 5609 5612 5616 5619 5619 5622 5624 5626 5628 5631 5634 5635 5636 5637 5639 5639 5639 5638 5638 5637 5635 5633 5633 5633 5630 5627 5628 5630 5634 5635 5633 5630 5627
5573 5574 5576 5578 5580 5582 5585 5589 5593 5597 5600 5603 5606 5608 5610 5612 5613 5615 5617 5620 5623 5624 5626 5627 5629 5630 5630 5630 5630 5629 5628 5626 5625 5625 5625 5623 5622 5617 5620 5624 5624 5622 5619
5566 5567 5569 5571 5574 5575 5578 5582 5586 5589 5592 5595 5597 5598 5601 5603 5604 5606 5608 5610 5612 5614 5615 5617 5618 5620 5621 5622 5621 5621 5620 5619 5617 5616 5616 5615 5613 5612 5609 5611 5612 5611 5610
5561 5561 5562 5564 5566 5569 5571 5574 5577 5581 5584 5586 5588 5590 5592 5594 5596 5597 5598 5600 5602 5604 5606 5608 5609 5610 5611 5612 5611 5611 5611 5610 5609 5608 5607 5606 5604 5603 5601 5601 5602 5602 5603
5554 5555 5556 5557 5559 5561 5563 5565 5569 5572 5575 5577 5580 5582 5585 5586 5588 5589 5589 5591 5593 5595 5597 5598 5599 5601 5602 5602 5601 5601 5601 5600 5599 5599 5598 5598 5596 5595 5593 5591 5591 5592 5594
5548 5549 5549 5550 5552 5554 5556 5558 5561 5563 5565 5568 5571 5574 5577 5578 5579 5580 5582 5583 5585 5587 5588 5589 5590 5592 5592 5592 5592 5592 5591 5590 5589 5589 5589 5588 5588 5586 5585 5582 5580 5581 5583
5545 5544 5544 5545 5546 5548 5550 5553 5554 5556 5557 5560 5563 5565 5568 5570 5571 5573 5575 5575 5577 5578 5580 5580 5582 5582 5582 5582 5582 5582 5582 5581 5580 5580 5580 5579 5579 5577 5575 5573 5570 5568 5569
5542 5542 5541 5540 5541 5543 5544 5546 5548 5549 5550 5553 5555 5558 5560 5563 5565 5566 5568 5568 5570 5571 5572 5572 5572 5572 5572 5573 5573 5573 5572 5571 5571 5571 5570 5569 5568 5566 5565 5563 5561 5558 5557
5539 5537 5537 5537 5537 5538 5539 5541 5542 5543 5544 5547 5549 5551 5553 5555 5557 5559 5561 5561 5562 5563 5563 5563 5563 5564 5564 5564 5564 5564 5563 5563 5563 5561 5560 5559 5558 5556 5556 5554 5551 5548 5546
5536 5535 5534 5534 5533 5534 5535 5536 5538 5539 5540 5541 5543 5545 5548 5549 5551 5553 5554 5555 5555 5556 5556 5556 5556 5556 5556 5556 5556 5556 5555 5554 5553 5551 5549 5549 5548 5546 5545 5543 5541 5538 5535
5536 5534 5532 5532 5531 5531 5532 5533 5535 5535 5537 5538 5539 5540 5542 5544 5546 5546 5547 5548 5549 5549 5550 5549 5548 5548 5548 5548 5548 5548 5547 5545 5543 5541 5540 5539 5538 5536 5535 5533 5530 5528 5526
5536 5534 5531 5530 5530 5530 5530 5531 5531 5532 5533 5534 5534 5535 5537 5539 5539 5540 5541 5542 5543 5543 5543 5543 5542 5540 5540 5540 5540 5539 5538 5536 5534 5532 5530 5529 5528 5526 5524 5523 5521 5518 5516
5537 5535 5532 5530 5529 5529 5528 5529 5529 5529 5530 5531 5531 5531 5532 5534 5534 5534 5535 5536 5537 5537 5536 5536 5534 5533 5532 5532 5531 5531 5530 5528 5526 5524 5522 5520 5518 5517 5515 5514 5512 5509 5507
5539 5536 5534 5531 5529 5527 5527 5527 5527 5527 5528 5528 5528 5528 5529 5529 5529 5529 5530 5531 5530 5530 5529 5528 5526 5524 5524 5524 5523 5523 5522 5520 5518 5515 5513 5511 5510 5508 5506 5505 5503 5501 5498
5540 5537 5534 5530 5528 5526 5526 5525 5525 5525 5525 5525 5525 5525 5525 5525 5525 5525 5525 5525 5524 5522 5521 5520 5519 5516 5516 5516 5516 5515 5513 5511 5508 5506 5503 5503 5502 5499 5497 5495 5494 5492 5490
5540 5537 5533 5531 5528 5526 5524 5523 5523 5522 5522 5522 5522 5521 5521 5521 5521 5520 5519 5518 5517 5515 5514 5513 5512 5510 5509 5509 5508 5507 5504 5502 5499 5498 5496 5494 5491 5490 5488 5487 5485 5484 5483
5539 5535 5532 5530 5527 5524 5523 5522 5521 5520 5520 5519 5518 5518 5517 5516 5516 5515 5513 5512 5511 5509 5508 5507 5505 5503 5501 5500 5500 5499 5496 5493 5492 5490 5487 5484 5482 5481 5480 5477 5476 5475 5474
5537 5534 5531 5528 5525 5523 5521 5519 5518 5517 5517 5516 5515 5514 5513 5512 5511 5510 5508 5507 5505 5504 5502 5501 5498 5496 5494 5492 5491 5489 5487 5485 5483 5481 5478 5476 5474 5472 5470 5468 5466 5465 5464
5534 5532 5529 5526 5524 5521 5519 5516 5515 5515 5515 5513 5512 5510 5509 5508 5506 5505 5504 5502 5500 5498 5496 5494 5492 5490 5487 5484 5482 5480 5478 5476 5474 5472 5470 5468 5465 5463 5461 5459 5457 5456 5454
5531 5529 5525 5523 5521 5519 5516 5514 5512 5512 5511 5509 5508 5506 5505 5504 5502 5500 5498 5496 5494 5491 5488 5486 5484 5481 5479 5476 5474 5472 5470 5468 5466 5463 5461 5458 5456 5454 5452 5450 5448 5446 5443
5527 5525 5522 5519 5517 5515 5514 5511 5510 5509 5507 5505 5503 5502 5500 5498 5496 5494 5491 5489 5487 5484 5482 5479 5477 5473 5471 5468 5466 5464 5462 5460 5457 5454 5452 5450 5447 5445 5442 5440 5437 5434 5431
5523 5521 5518 5515 5512 5511 5510 5508 5507 5505 5503 5500 5498 5496 5494 5492 5490 5487 5485 5482 5480 5477 5475 5472 5469 5465 5463 5460 5458 5456 5454 5451 5448 5446 5443 5441 5438 5434 5431 5429 5426 5423 5420
5518 5516 5513 5511 5509 5507 5506 5504 5502 5500 5497 5495 5492 5490 5488 5485 5483 5480 5478 5476 5473 5471 5468 5465 5461 5458 5455 5453 5451 5448 5445 5443 5440 5438 5434 5430 5427 5424 5421 5418 5415 5412 5409
5514 5511 5508 5507 5505 5503 5501 5499 5497 5495 5492 5488 5486 5483 5481 5478 5475 5472 5470 5468 5466 5464 5461 5458 5454 5452 5449 5446 5443 5440 5437 5434 5431 5428 5423 5420 5417 5414 5411 5408 5406 5402 5399